User: anonymous   Login
Location: Whispering Pines Observatory
(39.4020°N, 104.7430°W)
Time: 18:19:59
(UTC-07:00)
Language:

MOS 1 Rocket - Orbit

View from above orbital plane
View from above orbital plane
View from above satellite
View from above satellite

Ground track
Ground track

The orbit data is extracted from the following two-line orbital elements,

1 17528U 87018B   16037.81034441  .00000318  00000-0  78654-4 0  9995
2 17528  97.4024  47.0483 0154169  54.2390 357.3950 14.50586143527919
Epoch (UTC): 06 February 2016 19:26:53
Eccentricity: 0.0154169
inclination: 97.4024°
perigee height: 614 km
apogee height: 833 km
right ascension of ascending node: 47.0483°
argument of perigee: 54.2390°
revolutions per day: 14.50586143
mean anomaly at epoch: 357.3950°
orbit number at epoch: 52791

The dashed part of the orbit path shows where the satellite is in the earth's shadow,  

DLR